Glendive, MT

4:26 PM MST on February 09, 2016 (GMT -0700)
Dawson Community

Weather History for KGDV - October, 2011

Change the Weather History Date:

Thursday, October 27, 2011

  Actual Average Record
Temperature  
Mean Temperature 38 °F -  
Max Temperature 50 °F 48 °F 69 °F (2001)
Min Temperature 26 °F 27 °F 12 °F (2008)
Degree Days  
Heating Degree Days 27    
Moisture  
Dew Point 24 °F    
Average Humidity 62    
Maximum Humidity 86    
Minimum Humidity 37    
Precipitation  
Precipitation 0.00 in - - ()
Sea Level Pressure  
Sea Level Pressure 29.98 in    
Wind  
Wind Speed 11 mph (West)    
Max Wind Speed 22 mph    
Max Gust Speed 29 mph    
Visibility 10 miles    
Events      
Averages and records for this station are not official NWS values.
T = Trace of Precipitation, MM = Missing Value Source: NWS Daily Summary

Daily Weather History Graph

Daily Weather History Graph

Search for Another Location

Airport or City:

Trip Planner

Search our weather history database for the weather conditions in past years. The results will help you decide how hot, cold, wet, or windy it might be!

Date:

Astronomy

Oct. 27, 2011 Rise Set
Actual Time 7:34 AM MDT 5:50 PM MDT
Civil Twilight 7:02 AM MDT 6:22 PM MDT
Nautical Twilight 6:27 AM MDT 6:58 PM MDT
Astronomical Twilight 5:51 AM MDT 7:33 PM MDT
Moon 8:49 AM MDT (10/27) 6:12 PM MDT (10/27)
Length of Visible Light 11h 19m
Length of Day
10h 16m
New Moon, 1% of the Moon is Illuminated
Oct 27
New Moon
Nov 2
First Quarter
Nov 10
Full
Nov 18
Last Quarter
Nov 24
New

Hourly Weather History & Observations

Time (MDT) Temp. Windchill Dew Point Humidity Pressure Visibility Wind Dir Wind Speed Gust Speed Precip Events Conditions
12:15 AM 28.4 °F 19.1 °F 21.2 °F 74% 30.00 in 10.0 mi South 10.4 mph - N/A   Clear
12:35 AM 28.4 °F 19.1 °F 23.0 °F 80% 29.99 in 10.0 mi South 10.4 mph - N/A   Clear
12:55 AM 28.4 °F 20.4 °F 21.2 °F 74% 29.99 in 10.0 mi South 8.1 mph - N/A   Clear
1:15 AM 28.4 °F 20.4 °F 21.2 °F 74% 29.98 in 10.0 mi South 8.1 mph - N/A   Clear
1:55 AM 28.4 °F 21.2 °F 23.0 °F 80% 29.97 in 10.0 mi South 6.9 mph - N/A   Clear
2:15 AM 28.4 °F 22.2 °F 23.0 °F 80% 29.97 in 10.0 mi SSE 5.8 mph - N/A   Clear
2:35 AM 28.4 °F 22.2 °F 23.0 °F 80% 29.96 in 10.0 mi South 5.8 mph - N/A   Clear
2:55 AM 28.4 °F 23.3 °F 23.0 °F 80% 29.95 in 10.0 mi South 4.6 mph - N/A   Clear
3:35 AM 30.2 °F 21.3 °F 23.0 °F 75% 29.93 in 10.0 mi South 10.4 mph - N/A   Clear
3:55 AM 28.4 °F 19.7 °F 23.0 °F 80% 29.93 in 10.0 mi South 9.2 mph - N/A   Clear
4:35 AM 30.2 °F 22.6 °F 23.0 °F 75% 29.93 in 10.0 mi South 8.1 mph - N/A   Scattered Clouds
4:55 AM 28.4 °F 19.1 °F 23.0 °F 80% 29.92 in 10.0 mi South 10.4 mph - N/A   Mostly Cloudy
5:15 AM 30.2 °F 22.6 °F 23.0 °F 75% 29.92 in 10.0 mi South 8.1 mph - N/A   Mostly Cloudy
5:35 AM 28.4 °F 21.2 °F 23.0 °F 80% 29.93 in 10.0 mi South 6.9 mph - N/A   Overcast
5:55 AM 28.4 °F 21.2 °F 23.0 °F 80% 29.93 in 10.0 mi South 6.9 mph - N/A   Mostly Cloudy
6:15 AM 26.6 °F 19.1 °F 21.2 °F 80% 29.93 in 10.0 mi South 6.9 mph - N/A   Scattered Clouds
6:35 AM 26.6 °F 18.2 °F 21.2 °F 80% 29.92 in 10.0 mi SSW 8.1 mph - N/A   Mostly Cloudy
6:55 AM 28.4 °F 22.2 °F 23.0 °F 80% 29.92 in 10.0 mi South 5.8 mph - N/A   Overcast
7:15 AM 26.6 °F 22.6 °F 23.0 °F 86% 29.92 in 10.0 mi SSE 3.5 mph - N/A   Overcast
7:35 AM 26.6 °F 20.0 °F 21.2 °F 80% 29.93 in 10.0 mi SSE 5.8 mph - N/A   Mostly Cloudy
7:55 AM 26.6 °F 19.1 °F 21.2 °F 80% 29.93 in 10.0 mi South 6.9 mph - N/A   Partly Cloudy
8:15 AM 26.6 °F 17.5 °F 23.0 °F 86% 29.93 in 10.0 mi SSW 9.2 mph - N/A   Clear
8:35 AM 28.4 °F 21.2 °F 23.0 °F 80% 29.94 in 10.0 mi SW 6.9 mph - N/A   Clear
8:55 AM 35.6 °F 31.7 °F 26.6 °F 70% 29.94 in 10.0 mi West 4.6 mph - N/A   Clear
9:15 AM 37.4 °F 30.3 °F 26.6 °F 65% 29.95 in 10.0 mi West 10.4 mph - N/A   Clear
9:35 AM 41.0 °F 33.9 °F 24.8 °F 53% 29.95 in 10.0 mi West 12.7 mph - N/A   Clear
9:55 AM 42.8 °F 35.1 °F 24.8 °F 49% 29.95 in 10.0 mi West 16.1 mph 20.7 mph N/A   Clear
10:15 AM 44.6 °F 36.1 °F 24.8 °F 46% 29.96 in 10.0 mi NW 21.9 mph 27.6 mph N/A   Clear
10:35 AM 44.6 °F 36.9 °F 24.8 °F 46% 29.96 in 10.0 mi WNW 18.4 mph 24.2 mph N/A   Clear
10:55 AM 44.6 °F 36.4 °F 26.6 °F 49% 29.96 in 10.0 mi WNW 20.7 mph 27.6 mph N/A   Clear
11:15 AM 46.4 °F 38.7 °F 26.6 °F 46% 29.97 in 10.0 mi WNW 20.7 mph 26.5 mph N/A   Clear
11:35 AM 46.4 °F 38.5 °F 28.4 °F 50% 29.97 in 10.0 mi WNW 21.9 mph - N/A   Clear
11:55 AM 46.4 °F 39.0 °F 28.4 °F 50% 29.97 in 10.0 mi WNW 19.6 mph 25.3 mph N/A   Clear
12:15 PM 46.4 °F 38.7 °F 28.4 °F 50% 29.98 in 10.0 mi NNW 20.7 mph 26.5 mph N/A   Clear
12:55 PM 48.2 °F - 30.2 °F 50% 29.97 in 10.0 mi NW 16.1 mph 23.0 mph N/A   Clear
1:15 PM 48.2 °F - 28.4 °F 46% 29.96 in 10.0 mi NW 17.3 mph 24.2 mph N/A   Clear
1:35 PM 48.2 °F - 28.4 °F 46% 29.96 in 10.0 mi NW 15.0 mph 23.0 mph N/A   Clear
1:55 PM 48.2 °F - 28.4 °F 46% 29.96 in 10.0 mi NW 18.4 mph - N/A   Clear
2:15 PM 48.2 °F - 28.4 °F 46% 29.97 in 10.0 mi WNW 19.6 mph 25.3 mph N/A   Clear
2:35 PM 50.0 °F - 26.6 °F 40% 29.97 in 10.0 mi WNW 20.7 mph 27.6 mph N/A   Clear
2:55 PM 50.0 °F - 26.6 °F 40% 29.98 in 10.0 mi WNW 12.7 mph 24.2 mph N/A   Clear
3:15 PM 48.2 °F - 26.6 °F 43% 29.98 in 10.0 mi NW 16.1 mph 28.8 mph N/A   Partly Cloudy
3:35 PM 48.2 °F - 26.6 °F 43% 29.99 in 10.0 mi NW 17.3 mph 23.0 mph N/A   Scattered Clouds
3:55 PM 48.2 °F - 24.8 °F 40% 30.00 in 10.0 mi NW 15.0 mph - N/A   Partly Cloudy
4:15 PM 48.2 °F - 24.8 °F 40% 30.00 in 10.0 mi WNW 17.3 mph 21.9 mph N/A   Clear
4:35 PM 48.2 °F - 23.0 °F 37% 30.01 in 10.0 mi NNW 16.1 mph - N/A   Clear
4:55 PM 44.6 °F 38.8 °F 23.0 °F 43% 30.02 in 10.0 mi NW 11.5 mph - N/A   Clear
5:15 PM 44.6 °F 38.8 °F 24.8 °F 46% 30.03 in 10.0 mi NW 11.5 mph - N/A   Clear
5:35 PM 44.6 °F 38.1 °F 24.8 °F 46% 30.03 in 10.0 mi NW 13.8 mph - N/A   Clear
5:55 PM 42.8 °F 38.0 °F 23.0 °F 46% 30.04 in 10.0 mi NW 8.1 mph - N/A   Clear
6:15 PM 41.0 °F 34.7 °F 24.8 °F 53% 30.05 in 10.0 mi NNW 10.4 mph - N/A   Clear
6:35 PM 37.4 °F 31.4 °F 21.2 °F 52% 30.06 in 10.0 mi WNW 8.1 mph - N/A   Clear
7:15 PM 32.0 °F 24.8 °F 21.2 °F 64% 30.06 in 10.0 mi NW 8.1 mph - N/A   Clear
7:35 PM 32.0 °F 24.2 °F 21.2 °F 64% 30.07 in 10.0 mi WNW 9.2 mph - N/A   Clear
7:55 PM 33.8 °F 27.0 °F 24.8 °F 70% 30.07 in 10.0 mi WNW 8.1 mph - N/A   Clear
8:15 PM 33.8 °F 27.7 °F 23.0 °F 65% 30.07 in 10.0 mi WNW 6.9 mph - N/A   Clear
8:35 PM 30.2 °F 21.9 °F 23.0 °F 75% 30.08 in 10.0 mi WNW 9.2 mph - N/A   Clear
8:55 PM 30.2 °F 21.9 °F 24.8 °F 80% 30.08 in 10.0 mi NW 9.2 mph - N/A   Clear
9:15 PM 30.2 °F 22.6 °F 24.8 °F 80% 30.08 in 10.0 mi WNW 8.1 mph - N/A   Clear
9:35 PM 28.4 °F 20.4 °F 23.0 °F 80% 30.08 in 10.0 mi West 8.1 mph - N/A   Clear
9:55 PM 28.4 °F 21.2 °F 24.8 °F 86% 30.09 in 10.0 mi WNW 6.9 mph - N/A   Clear
10:15 PM 26.6 °F 18.2 °F 21.2 °F 80% 30.09 in 10.0 mi WNW 8.1 mph - N/A   Clear
10:35 PM 26.6 °F 18.2 °F 21.2 °F 80% 30.09 in 10.0 mi WNW 8.1 mph - N/A   Clear
10:55 PM 28.4 °F - 21.2 °F 74% 30.09 in 10.0 mi Calm Calm - N/A   Clear
11:15 PM 28.4 °F 23.3 °F 23.0 °F 80% 30.09 in 10.0 mi SSW 4.6 mph - N/A   Clear
11:35 PM 28.4 °F 24.6 °F 21.2 °F 74% 30.10 in 10.0 mi SW 3.5 mph - N/A   Clear
11:55 PM 28.4 °F - 23.0 °F 80% 30.10 in 10.0 mi Calm Calm - N/A   Clear